Location: Unspecified
(0.0000°N, 0.0000°E)
Time: 11:18:45
(UTC+00:00)

SR - Pass Details

Date: 22 November 2019
Orbit: 573 x 882 km, 66.7° (Epoch: 07 December)

Event Time Altitude Azimuth Distance (km) Brightness Sun altitude
Rises 00:21:42 0° 343° (NNW) 3,369 - -68.1°
Reaches altitude 10° 00:24:14 10° 344° (NNW) 2,399 - -67.9°
Maximum altitude 00:29:45 77° 70° (ENE) 790 - -67.3°
Drops below altitude 10° 00:34:48 10° 156° (SSE) 2,206 - -66.7°
Sets 00:37:03 0° 157° (SSE) 3,079 - -66.4°
